When you browse on this site, cookies collect data to enhance your experience and personalize the content and advertising you see.
Visit our Privacy Policy to learn more. By continuing to use the site, you agree to this use of cookies and data.
  • Em Portugal
  • Lista de países
  • Para 7 dias
  • Temperatura da água
  • Mapas de satélite
  • Mapa do tempo
  • Widgets de tempo
  • user-avatar
    Iniciar Sessão

    Previsão horária em Faro

    Hoje, 26 Março, Terça-feira

    Tempo Temperatura Precipitação Vento Pressão Humidade
    00:00 +15°C° 0 mm 2 m/s 757 mmHg 71%
    01:00 +14°C° 0 mm 3 m/s 757 mmHg 72%
    02:00 +14°C° 0 mm 4 m/s 757 mmHg 73%
    03:00 +13°C° 0 mm 4 m/s 757 mmHg 73%
    04:00 +13°C° 0 mm 5 m/s 756 mmHg 73%
    05:00 +13°C° 0 mm 6 m/s 756 mmHg 72%
    06:00 +15°C° 0 mm 6 m/s 756 mmHg 67%
    07:00 +16°C° 0 mm 6 m/s 756 mmHg 61%
    08:00 +18°C° 0 mm 7 m/s 756 mmHg 55%
    09:00 +21°C° 0 mm 6 m/s 756 mmHg 50%
    10:00 +22°C° 0 mm 6 m/s 756 mmHg 46%
    11:00 +24°C° 0 mm 6 m/s 756 mmHg 41%
    12:00 +24°C° 0 mm 6 m/s 756 mmHg 41%
    13:00 +24°C° 0 mm 7 m/s 756 mmHg 42%
    14:00 +23°C° 0 mm 7 m/s 755 mmHg 42%
    15:00 +22°C° 0 mm 7 m/s 755 mmHg 49%
    16:00 +20°C° 0 mm 8 m/s 755 mmHg 56%
    17:00 +18°C° 0 mm 8 m/s 755 mmHg 62%
    18:00 +17°C° 0 mm 9 m/s 756 mmHg 64%
    19:00 +16°C° 0 mm 10 m/s 756 mmHg 66%
    20:00 +16°C° 0 mm 10 m/s 757 mmHg 68%
    21:00 +14°C° 0 mm 11 m/s 757 mmHg 67%
    22:00 +14°C° 0 mm 12 m/s 758 mmHg 65%
    23:00 +14°C° 0 mm 13 m/s 758 mmHg 63%

    Amanhã, 27 Março, Quarta-feira

    Tempo Temperatura Precipitação Vento Pressão Humidade
    00:00 +14°C° 0 mm 13 m/s 758 mmHg 60%
    01:00 +14°C° 0 mm 13 m/s 759 mmHg 57%
    02:00 +14°C° 0 mm 13 m/s 759 mmHg 54%
    03:00 +13°C° 0 mm 12 m/s 759 mmHg 57%
    04:00 +13°C° 0 mm 12 m/s 760 mmHg 60%
    05:00 +12°C° 0 mm 11 m/s 760 mmHg 62%
    06:00 +13°C° 0 mm 11 m/s 760 mmHg 58%
    07:00 +14°C° 0 mm 10 m/s 761 mmHg 53%
    08:00 +16°C° 0 mm 10 m/s 762 mmHg 48%
    09:00 +17°C° 0 mm 10 m/s 762 mmHg 44%
    10:00 +19°C° 0 mm 9 m/s 762 mmHg 39%
    11:00 +21°C° 0 mm 9 m/s 762 mmHg 34%
    12:00 +21°C° 0 mm 9 m/s 762 mmHg 34%
    13:00 +21°C° 0 mm 8 m/s 762 mmHg 35%
    14:00 +22°C° 0 mm 8 m/s 762 mmHg 36%
    15:00 +20°C° 0 mm 8 m/s 762 mmHg 43%
    16:00 +18°C° 0 mm 8 m/s 762 mmHg 50%
    17:00 +16°C° 0 mm 9 m/s 762 mmHg 57%
    18:00 +15°C° 0 mm 8 m/s 763 mmHg 62%
    19:00 +13°C° 0 mm 8 m/s 764 mmHg 67%
    20:00 +12°C° 0 mm 8 m/s 764 mmHg 72%
    21:00 +12°C° 0 mm 8 m/s 764 mmHg 73%
    22:00 +12°C° 0 mm 8 m/s 765 mmHg 74%
    23:00 +12°C° 0 mm 9 m/s 765 mmHg 75%

    Depois de amanhã, 28 Março, Quinta-feira

    Tempo Temperatura Precipitação Vento Pressão Humidade
    00:00 +12°C° 0 mm 9 m/s 765 mmHg 73%
    01:00 +11°C° 0 mm 9 m/s 765 mmHg 72%
    02:00 +11°C° 0 mm 9 m/s 765 mmHg 70%
    03:00 +11°C° 0 mm 8 m/s 765 mmHg 72%
    04:00 +10°C° 0 mm 8 m/s 765 mmHg 75%
    05:00 +9°C° 0 mm 7 m/s 765 mmHg 77%
    06:00 +10°C° 0 mm 7 m/s 765 mmHg 70%
    07:00 +12°C° 0 mm 7 m/s 765 mmHg 63%
    08:00 +14°C° 0 mm 7 m/s 766 mmHg 56%
    09:00 +16°C° 0 mm 7 m/s 766 mmHg 50%
    10:00 +18°C° 0 mm 7 m/s 766 mmHg 44%
    11:00 +20°C° 0 mm 8 m/s 765 mmHg 39%
    12:00 +21°C° 0 mm 7 m/s 765 mmHg 38%
    13:00 +21°C° 0 mm 7 m/s 764 mmHg 38%
    14:00 +21°C° 0 mm 6 m/s 764 mmHg 37%
    15:00 +20°C° 0 mm 6 m/s 764 mmHg 43%
    16:00 +19°C° 0 mm 6 m/s 764 mmHg 48%
    17:00 +19°C° 0 mm 5 m/s 763 mmHg 54%
    18:00 +16°C° 0 mm 5 m/s 764 mmHg 63%
    19:00 +14°C° 0 mm 5 m/s 764 mmHg 73%
    20:00 +12°C° 0 mm 5 m/s 765 mmHg 82%
    21:00 +12°C° 0 mm 5 m/s 764 mmHg 83%
    22:00 +11°C° 0 mm 6 m/s 764 mmHg 84%
    23:00 +10°C° 0 mm 6 m/s 764 mmHg 85%

    29 Março, Sexta-feira

    Tempo Temperatura Precipitação Vento Pressão Humidade
    00:00 +10°C° 0 mm 6 m/s 764 mmHg 84%
    01:00 +10°C° 0 mm 7 m/s 764 mmHg 83%
    02:00 +10°C° 0 mm 7 m/s 763 mmHg 81%
    03:00 +9°C° 0 mm 7 m/s 763 mmHg 81%
    04:00 +9°C° 0 mm 6 m/s 763 mmHg 81%
    05:00 +8°C° 0 mm 6 m/s 763 mmHg 81%
    06:00 +10°C° 0 mm 6 m/s 763 mmHg 74%
    07:00 +13°C° 0 mm 6 m/s 763 mmHg 67%
    08:00 +14°C° 0 mm 6 m/s 764 mmHg 60%
    09:00 +16°C° 0 mm 6 m/s 764 mmHg 56%
    10:00 +17°C° 0 mm 6 m/s 764 mmHg 52%
    11:00 +20°C° 0 mm 7 m/s 763 mmHg 49%
    12:00 +20°C° 0 mm 7 m/s 763 mmHg 49%
    13:00 +20°C° 0 mm 7 m/s 762 mmHg 50%
    14:00 +21°C° 0 mm 7 m/s 762 mmHg 50%
    15:00 +20°C° 0 mm 7 m/s 762 mmHg 55%
    16:00 +18°C° 0 mm 7 m/s 761 mmHg 59%
    17:00 +17°C° 0 mm 6 m/s 761 mmHg 63%
    18:00 +16°C° 0 mm 6 m/s 761 mmHg 72%
    19:00 +14°C° 0 mm 6 m/s 762 mmHg 81%
    20:00 +13°C° 0 mm 5 m/s 762 mmHg 91%
    21:00 +13°C° 0 mm 5 m/s 762 mmHg 91%
    22:00 +12°C° 0 mm 5 m/s 762 mmHg 92%
    23:00 +12°C° 0 mm 5 m/s 761 mmHg 92%

    30 Março, Sábado

    Tempo Temperatura Precipitação Vento Pressão Humidade
    00:00 +11°C° 0 mm 6 m/s 761 mmHg 92%
    01:00 +11°C° 0 mm 6 m/s 761 mmHg 93%
    02:00 +11°C° 0 mm 7 m/s 760 mmHg 93%
    03:00 +11°C° 0 mm 7 m/s 760 mmHg 93%
    04:00 +10°C° 0 mm 7 m/s 760 mmHg 92%
    05:00 +10°C° 0 mm 6 m/s 759 mmHg 92%
    06:00 +13°C° 0 mm 6 m/s 760 mmHg 83%
    07:00 +14°C° 0 mm 6 m/s 760 mmHg 73%
    08:00 +16°C° 0 mm 6 m/s 760 mmHg 64%
    09:00 +19°C° 0 mm 6 m/s 760 mmHg 58%
    10:00 +21°C° 0 mm 5 m/s 760 mmHg 52%
    11:00 +22°C° 0 mm 5 m/s 760 mmHg 47%
    12:00 +23°C° 0 mm 5 m/s 759 mmHg 45%
    13:00 +23°C° 0 mm 4 m/s 758 mmHg 44%
    14:00 +25°C° 0 mm 4 m/s 758 mmHg 43%
    15:00 +22°C° 0 mm 3 m/s 758 mmHg 52%
    16:00 +21°C° 0 mm 3 m/s 758 mmHg 61%
    17:00 +19°C° 0 mm 3 m/s 757 mmHg 69%
    18:00 +18°C° 0 mm 2 m/s 758 mmHg 75%
    19:00 +17°C° 0 mm 2 m/s 758 mmHg 81%
    20:00 +16°C° 0 mm 1 m/s 758 mmHg 87%
    21:00 +15°C° 0 mm 1 m/s 758 mmHg 88%
    22:00 +15°C° 0 mm 1 m/s 758 mmHg 90%
    23:00 +14°C° 0 mm 1 m/s 758 mmHg 91%

    31 Março, Domingo

    Tempo Temperatura Precipitação Vento Pressão Humidade
    00:00 +14°C° 0 mm 1 m/s 757 mmHg 92%
    01:00 +14°C° 0 mm 1 m/s 757 mmHg 93%
    02:00 +14°C° 0 mm 1 m/s 756 mmHg 94%
    03:00 +14°C° 0 mm 1 m/s 756 mmHg 94%
    04:00 +14°C° 0 mm 1 m/s 756 mmHg 93%
    05:00 +14°C° 0 mm 1 m/s 756 mmHg 93%
    06:00 +15°C° 0 mm 2 m/s 756 mmHg 87%
    07:00 +17°C° 0 mm 2 m/s 757 mmHg 80%
    08:00 +18°C° 0 mm 2 m/s 757 mmHg 74%
    09:00 +20°C° 0.1 mm 2 m/s 757 mmHg 68%
    10:00 +21°C° 0.1 mm 2 m/s 757 mmHg 63%
    11:00 +24°C° 0.1 mm 2 m/s 757 mmHg 57%
    12:00 +23°C° 0.5 mm 2 m/s 757 mmHg 61%
    13:00 +23°C° 0.5 mm 2 m/s 757 mmHg 65%
    14:00 +21°C° 0.5 mm 2 m/s 756 mmHg 69%
    15:00 +20°C° 0.2 mm 2 m/s 757 mmHg 72%
    16:00 +20°C° 0.2 mm 2 m/s 757 mmHg 76%
    17:00 +19°C° 0.2 mm 2 m/s 757 mmHg 79%
    18:00 +18°C° 0 mm 2 m/s 758 mmHg 84%
    19:00 +16°C° 0 mm 2 m/s 758 mmHg 88%
    20:00 +15°C° 0 mm 2 m/s 759 mmHg 93%
    21:00 +15°C° 0 mm 2 m/s 759 mmHg 92%
    22:00 +14°C° 0 mm 1 m/s 759 mmHg 90%
    23:00 +14°C° 0 mm 1 m/s 759 mmHg 89%
    Mostrar mais